Rolla, MO

2:18 PM CDT on October 22, 2019 (GMT -0500)
Rolla National

Weather History for KVIH - September, 2019

Change the Weather History Date:

Sunday, September 22, 2019

  Actual Average Record
Temperature  
Mean Temperature 76 °F 65 °F  
Max Temperature 80 °F 76 °F 95 °F (1956)
Min Temperature 71 °F 54 °F 34 °F (1995)
Degree Days  
Heating Degree Days 0 3  
Month to date heating degree days 0 27  
Since 1 July heating degree days 0 30  
Cooling Degree Days 10 3  
Month to date cooling degree days 245 122  
Year to date cooling degree days 1265 1199  
Growing Degree Days 26 (Base 50)    
Moisture  
Dew Point 67 °F    
Average Humidity 83    
Maximum Humidity 94    
Minimum Humidity 64    
Precipitation  
Precipitation 0.57 in 0.12 in 1.97 in (1970)
Month to date precipitation 1.06 3.07  
Year to date precipitation 34.70 32.62  
Sea Level Pressure  
Sea Level Pressure 29.96 in    
Wind  
Wind Speed 10 mph ()    
Max Wind Speed 24 mph    
Max Gust Speed 33 mph    
Visibility 8.4 miles    
Events Rain    
T = Trace of Precipitation, MM = Missing Value Source: Averaged Metar Reports

Daily Weather History Graph

Daily Weather History Graph

Search for Another Location

Airport or City:

Astronomy

Sep. 22, 2019 Rise Set
Actual Time 6:54 AM CDT 7:04 PM CDT
Civil Twilight 6:28 AM CDT 7:30 PM CDT
Nautical Twilight 5:57 AM CDT 8:01 PM CDT
Astronomical Twilight 5:26 AM CDT 8:32 PM CDT
Moon No Moon Rise 2:54 PM CDT
Length of Visible Light 13h 02m
Length of Day
12h 09m
Last Quarter, 44% of the Moon is Illuminated
Sep 22
Last Quarter
Sep 28
New
Oct 5
First Quarter
Oct 13
Full
Oct 21
Last Quarter

Hourly Weather History & Observations

Time (CDT) Temp. Dew Point Humidity Pressure Visibility Wind Dir Wind Speed Gust Speed Precip Events Conditions
12:53 AM 73.0 °F 62.1 °F 68% 30.01 in 10.0 mi South 12.7 mph - N/A   Clear
1:53 AM 73.0 °F 62.1 °F 68% 30.01 in 10.0 mi South 12.7 mph - N/A   Clear
2:53 AM 73.0 °F 62.1 °F 68% 30.00 in 10.0 mi South 11.5 mph 20.7 mph N/A   Partly Cloudy
3:53 AM 73.0 °F 61.0 °F 66% 29.98 in 10.0 mi South 10.4 mph - N/A   Clear
4:53 AM 72.0 °F 61.0 °F 68% 29.98 in 10.0 mi South 10.4 mph - N/A   Clear
5:53 AM 71.1 °F 61.0 °F 70% 29.98 in 10.0 mi South 13.8 mph 21.9 mph N/A   Clear
6:53 AM 72.0 °F 60.1 °F 66% 29.97 in 10.0 mi South 12.7 mph 27.6 mph N/A   Clear
7:53 AM 73.0 °F 61.0 °F 66% 29.96 in 10.0 mi South 12.7 mph 21.9 mph N/A   Clear
8:53 AM 75.0 °F 63.0 °F 66% 29.95 in 10.0 mi South 17.3 mph 25.3 mph N/A   Clear
9:53 AM 75.9 °F 64.0 °F 67% 29.96 in 10.0 mi South 15.0 mph 24.2 mph N/A   Partly Cloudy
10:53 AM 79.0 °F 66.0 °F 64% 29.96 in 10.0 mi SSW 13.8 mph 27.6 mph N/A   Mostly Cloudy
11:53 AM 79.0 °F 66.0 °F 64% 29.95 in 10.0 mi SW 12.7 mph 19.6 mph N/A   Mostly Cloudy
12:53 PM 79.0 °F 66.9 °F 66% 29.94 in 10.0 mi SSW 9.2 mph 23.0 mph N/A   Overcast
1:53 PM 73.0 °F 70.0 °F 90% 29.94 in 10.0 mi SW 11.5 mph - 0.04 in Rain Light Rain
2:53 PM 72.0 °F 70.0 °F 93% 29.94 in 9.0 mi SW 11.5 mph 19.6 mph 0.05 in Rain Light Rain
3:36 PM 71.1 °F 69.1 °F 93% 29.97 in 4.0 mi SW 12.7 mph 20.7 mph 0.11 in Rain Light Rain
3:41 PM 71.1 °F 69.1 °F 93% 29.97 in 1.5 mi SSW 17.3 mph 24.2 mph 0.19 in Rain Heavy Rain
3:53 PM 71.1 °F 69.1 °F 93% 29.94 in 1.5 mi SSW 13.8 mph - 0.30 in Rain Heavy Rain
4:02 PM 71.1 °F 69.1 °F 93% 29.97 in 3.0 mi SSW 16.1 mph 27.6 mph 0.02 in Rain Light Rain
4:47 PM 71.6 °F 69.8 °F 94% 29.96 in 1.8 mi SSW 12.7 mph - 0.14 in Rain Heavy Rain
4:53 PM 71.1 °F 69.1 °F 93% 29.94 in 1.8 mi SSW 11.5 mph - 0.16 in Rain Heavy Rain
4:56 PM 71.1 °F 69.1 °F 93% 29.96 in 3.0 mi South 10.4 mph - 0.00 in Rain Light Rain
5:53 PM 71.1 °F 69.1 °F 93% 29.94 in 10.0 mi SSW 8.1 mph - 0.01 in   Overcast
5:56 PM 71.1 °F 69.1 °F 93% 29.96 in 10.0 mi SSW 8.1 mph - N/A   Overcast
6:18 PM 71.1 °F 69.1 °F 93% 29.96 in 10.0 mi South 9.2 mph - 0.01 in Rain Light Rain
6:53 PM 71.1 °F 69.1 °F 93% 29.93 in 10.0 mi South 6.9 mph - 0.01 in   Overcast
7:53 PM 71.1 °F 69.1 °F 93% 29.94 in 10.0 mi SSW 9.2 mph - N/A   Clear
8:53 PM 71.1 °F 69.1 °F 93% 29.96 in 10.0 mi SSW 9.2 mph - N/A   Mostly Cloudy
9:53 PM 71.1 °F 69.1 °F 93% 29.95 in 10.0 mi SSW 5.8 mph - N/A   Overcast
10:41 PM 71.1 °F 69.1 °F 93% 29.99 in 10.0 mi SSW 6.9 mph - 0.00 in Rain Light Rain
10:53 PM 71.1 °F 69.1 °F 93% 29.96 in 10.0 mi SW 5.8 mph - 0.00 in   Overcast
11:06 PM 71.1 °F 69.1 °F 93% 29.99 in 10.0 mi SSW 6.9 mph - N/A   Mostly Cloudy
11:33 PM 71.1 °F 69.1 °F 93% 30.00 in 10.0 mi WSW 5.8 mph - N/A   Mostly Cloudy
11:53 PM 71.1 °F 69.1 °F 93% 29.96 in 10.0 mi SW 5.8 mph - N/A   Overcast